Time,TemperatureF,DewpointF,PressureIn,WindDirection,WindDirectionDegrees,WindSpeedMPH,WindSpeedGustMPH,Humidity,HourlyPrecipIn,Conditions,Clouds,dailyrainin,SoftwareType,DateUTC
2013-05-04 00:12:00,57.1,24.0,29.68,NNE,30,0.0,-999.0,28,-99.99,,,0.00,weatherlink.com 1.10,2013-05-04 07:12:00,
2013-05-04 00:27:00,57.1,25.0,29.67,North,7,0.0,-999.0,29,-99.99,,,0.00,weatherlink.com 1.10,2013-05-04 07:27:00,
2013-05-04 00:42:00,57.2,29.0,29.66,NNE,16,0.0,-999.0,34,-99.99,,,0.00,weatherlink.com 1.10,2013-05-04 07:42:00,
2013-05-04 00:57:00,57.1,27.0,29.66,North,4,0.0,-999.0,32,-99.99,,,0.00,weatherlink.com 1.10,2013-05-04 07:57:00,
2013-05-04 01:12:00,56.6,26.0,29.65,North,6,0.0,-999.0,31,-99.99,,,0.00,weatherlink.com 1.10,2013-05-04 08:12:00,
2013-05-04 01:27:00,56.6,28.0,29.65,North,0,0.0,-999.0,34,-99.99,,,0.00,weatherlink.com 1.10,2013-05-04 08:27:00,
2013-05-04 01:42:00,56.6,29.0,29.64,North,6,0.0,-999.0,35,-99.99,,,0.00,weatherlink.com 1.10,2013-05-04 08:42:00,
2013-05-04 01:57:00,56.0,29.0,29.63,North,0,2.0,-999.0,35,-99.99,,,0.00,weatherlink.com 1.10,2013-05-04 08:57:00,
2013-05-04 02:12:00,56.3,29.0,29.63,NE,45,2.0,-999.0,35,-99.99,,,0.00,weatherlink.com 1.10,2013-05-04 09:12:00,
2013-05-04 02:27:00,55.7,29.0,29.62,North,0,0.0,-999.0,36,-99.99,,,0.00,weatherlink.com 1.10,2013-05-04 09:27:00,
2013-05-04 02:42:00,55.6,27.0,29.62,NNE,32,1.0,-999.0,34,-99.99,,,0.00,weatherlink.com 1.10,2013-05-04 09:42:00,
2013-05-04 02:57:00,55.4,29.0,29.61,North,8,2.0,-999.0,36,-99.99,,,0.00,weatherlink.com 1.10,2013-05-04 09:57:00,
2013-05-04 03:12:00,55.6,30.0,29.60,North,354,11.0,-999.0,38,-99.99,,,0.00,weatherlink.com 1.10,2013-05-04 10:12:00,
2013-05-04 03:27:00,55.4,30.0,29.60,North,359,6.0,-999.0,38,-99.99,,,0.00,weatherlink.com 1.10,2013-05-04 10:27:00,
2013-05-04 03:42:00,55.1,31.0,29.60,North,1,0.0,-999.0,40,-99.99,,,0.00,weatherlink.com 1.10,2013-05-04 10:42:00,
2013-05-04 03:57:00,54.8,31.0,29.59,North,0,8.0,-999.0,41,-99.99,,,0.00,weatherlink.com 1.10,2013-05-04 10:57:00,
2013-05-04 04:12:00,55.0,33.0,29.59,North,0,0.0,-999.0,43,-99.99,,,0.00,weatherlink.com 1.10,2013-05-04 11:12:00,
2013-05-04 04:27:00,54.8,34.0,29.60,North,0,11.0,-999.0,46,-99.99,,,0.00,weatherlink.com 1.10,2013-05-04 11:27:00,
2013-05-04 04:42:00,54.8,34.0,29.60,North,10,6.0,-999.0,45,-99.99,,,0.00,weatherlink.com 1.10,2013-05-04 11:42:00,
2013-05-04 05:12:00,54.4,33.0,29.59,NNW,346,2.0,-999.0,44,-99.99,,,0.00,weatherlink.com 1.10,2013-05-04 12:12:00,
2013-05-04 05:42:00,54.1,32.0,29.60,NNE,20,0.0,-999.0,44,-99.99,,,0.00,weatherlink.com 1.10,2013-05-04 12:42:00,
2013-05-04 05:57:00,54.2,30.0,29.60,NE,45,0.0,-999.0,39,-99.99,,,0.00,weatherlink.com 1.10,2013-05-04 12:57:00,
2013-05-04 06:12:00,53.5,30.0,29.60,ENE,64,0.0,-999.0,41,-99.99,,,0.00,weatherlink.com 1.10,2013-05-04 13:12:00,
2013-05-04 06:27:00,53.4,29.0,29.62,East,86,0.0,-999.0,40,-99.99,,,0.00,weatherlink.com 1.10,2013-05-04 13:27:00,
2013-05-04 06:42:00,53.8,29.0,29.62,ESE,121,3.0,-999.0,39,-99.99,,,0.00,weatherlink.com 1.10,2013-05-04 13:42:00,
2013-05-04 06:57:00,54.4,29.0,29.62,SSE,151,2.0,-999.0,38,-99.99,,,0.00,weatherlink.com 1.10,2013-05-04 13:57:00,
2013-05-04 07:12:00,55.3,29.0,29.61,SE,137,3.0,-999.0,37,-99.99,,,0.00,weatherlink.com 1.10,2013-05-04 14:12:00,
2013-05-04 07:27:00,57.1,29.0,29.62,SE,128,0.0,-999.0,34,-99.99,,,0.00,weatherlink.com 1.10,2013-05-04 14:27:00,
2013-05-04 07:42:00,58.4,28.0,29.62,SE,134,0.0,-999.0,32,-99.99,,,0.00,weatherlink.com 1.10,2013-05-04 14:42:00,
2013-05-04 07:57:00,59.8,30.0,29.61,SE,130,0.0,-999.0,32,-99.99,,,0.00,weatherlink.com 1.10,2013-05-04 14:57:00,
2013-05-04 08:12:00,60.4,29.0,29.60,SSE,157,0.0,-999.0,31,-99.99,,,0.00,weatherlink.com 1.10,2013-05-04 15:12:00,
2013-05-04 08:27:00,60.5,29.0,29.61,South,184,0.0,-999.0,30,-99.99,,,0.00,weatherlink.com 1.10,2013-05-04 15:27:00,
2013-05-04 08:42:00,61.6,28.0,29.61,South,185,0.0,-999.0,28,-99.99,,,0.00,weatherlink.com 1.10,2013-05-04 15:42:00,
2013-05-04 08:57:00,61.3,28.0,29.60,SSW,199,1.0,-999.0,28,-99.99,,,0.00,weatherlink.com 1.10,2013-05-04 15:57:00,
2013-05-04 09:12:00,62.1,28.0,29.59,South,178,0.0,-999.0,28,-99.99,,,0.00,weatherlink.com 1.10,2013-05-04 16:12:00,
2013-05-04 09:27:00,62.5,27.0,29.60,SSW,198,0.0,-999.0,26,-99.99,,,0.00,weatherlink.com 1.10,2013-05-04 16:27:00,
2013-05-04 09:42:00,63.2,28.0,29.59,South,185,0.0,-999.0,26,-99.99,,,0.00,weatherlink.com 1.10,2013-05-04 16:42:00,
2013-05-04 09:57:00,64.0,27.0,29.59,WSW,240,0.0,-999.0,25,-99.99,,,0.00,weatherlink.com 1.10,2013-05-04 16:57:00,
2013-05-04 10:12:00,65.1,29.0,29.59,West,267,6.0,-999.0,26,-99.99,,,0.00,weatherlink.com 1.10,2013-05-04 17:12:00,
2013-05-04 10:27:00,64.6,28.0,29.58,WNW,284,0.0,-999.0,25,-99.99,,,0.00,weatherlink.com 1.10,2013-05-04 17:27:00,
2013-05-04 10:57:00,66.9,28.0,29.56,WNW,288,5.0,-999.0,23,-99.99,,,0.00,weatherlink.com 1.10,2013-05-04 17:57:00,
2013-05-04 11:12:00,66.9,28.0,29.56,West,277,4.0,-999.0,23,-99.99,,,0.00,weatherlink.com 1.10,2013-05-04 18:12:00,
2013-05-04 11:27:00,66.9,29.0,29.56,West,272,5.0,-999.0,24,-99.99,,,0.00,weatherlink.com 1.10,2013-05-04 18:27:00,
2013-05-04 11:42:00,67.0,27.0,29.56,SW,229,4.0,-999.0,22,-99.99,,,0.00,weatherlink.com 1.10,2013-05-04 18:42:00,
2013-05-04 11:57:00,66.9,27.0,29.57,WSW,240,4.0,-999.0,22,-99.99,,,0.00,weatherlink.com 1.10,2013-05-04 18:57:00,
2013-05-04 12:12:00,66.5,27.0,29.55,WNW,299,3.0,-999.0,23,-99.99,,,0.00,weatherlink.com 1.10,2013-05-04 19:12:00,
2013-05-04 12:27:00,67.2,27.0,29.55,WNW,282,1.0,-999.0,22,-99.99,,,0.00,weatherlink.com 1.10,2013-05-04 19:27:00,
2013-05-04 12:42:00,66.5,26.0,29.54,WNW,292,3.0,-999.0,22,-99.99,,,0.00,weatherlink.com 1.10,2013-05-04 19:42:00,
2013-05-04 12:57:00,67.3,26.0,29.54,South,191,2.0,-999.0,21,-99.99,,,0.00,weatherlink.com 1.10,2013-05-04 19:57:00,
2013-05-04 13:12:00,68.5,29.0,29.53,SSW,202,2.0,-999.0,23,-99.99,,,0.00,weatherlink.com 1.10,2013-05-04 20:12:00,
2013-05-04 13:27:00,68.3,26.0,29.53,West,272,4.0,-999.0,20,-99.99,,,0.00,weatherlink.com 1.10,2013-05-04 20:27:00,
2013-05-04 13:42:00,68.2,27.0,29.53,NW,306,0.0,-999.0,21,-99.99,,,0.00,weatherlink.com 1.10,2013-05-04 20:42:00,
2013-05-04 13:57:00,68.2,29.0,29.52,North,0,0.0,-999.0,23,-99.99,,,0.00,weatherlink.com 1.10,2013-05-04 20:57:00,
2013-05-04 14:12:00,67.8,26.0,29.52,WNW,287,8.0,-999.0,21,-99.99,,,0.00,weatherlink.com 1.10,2013-05-04 21:12:00,
2013-05-04 14:27:00,68.5,26.0,29.53,WNW,287,0.0,-999.0,20,-99.99,,,0.00,weatherlink.com 1.10,2013-05-04 21:27:00,
2013-05-04 14:42:00,68.5,26.0,29.53,WNW,285,2.0,-999.0,20,-99.99,,,0.00,weatherlink.com 1.10,2013-05-04 21:42:00,
2013-05-04 14:57:00,67.7,26.0,29.51,West,270,6.0,-999.0,21,-99.99,,,0.00,weatherlink.com 1.10,2013-05-04 21:57:00,
2013-05-04 15:12:00,66.7,32.0,29.52,SW,223,2.0,-999.0,27,-99.99,,,0.00,weatherlink.com 1.10,2013-05-04 22:12:00,
2013-05-04 15:27:00,66.2,31.0,29.52,WSW,243,6.0,-999.0,27,-99.99,,,0.00,weatherlink.com 1.10,2013-05-04 22:27:00,
2013-05-04 15:42:00,65.7,36.0,29.50,West,264,2.0,-999.0,33,-99.99,,,0.00,weatherlink.com 1.10,2013-05-04 22:42:00,
2013-05-04 15:57:00,65.7,37.0,29.51,SW,224,17.0,-999.0,35,-99.99,,,0.00,weatherlink.com 1.10,2013-05-04 22:57:00,
2013-05-04 16:12:00,64.4,37.0,29.51,WSW,256,6.0,-999.0,36,-99.99,,,0.00,weatherlink.com 1.10,2013-05-04 23:12:00,
2013-05-04 16:27:00,64.8,39.0,29.52,West,272,5.0,-999.0,39,-99.99,,,0.00,weatherlink.com 1.10,2013-05-04 23:27:00,
2013-05-04 16:42:00,63.2,38.0,29.50,West,264,3.0,-999.0,40,-99.99,,,0.00,weatherlink.com 1.10,2013-05-04 23:42:00,
2013-05-04 16:57:00,62.4,37.0,29.52,WSW,241,9.0,-999.0,39,-99.99,,,0.00,weatherlink.com 1.10,2013-05-04 23:57:00,
2013-05-04 17:12:00,61.8,37.0,29.53,NNW,329,12.0,-999.0,40,-99.99,,,0.00,weatherlink.com 1.10,2013-05-05 00:12:00,
2013-05-04 17:27:00,61.1,37.0,29.54,WNW,285,7.0,-999.0,41,-99.99,,,0.00,weatherlink.com 1.10,2013-05-05 00:27:00,
2013-05-04 17:42:00,59.9,37.0,29.55,WSW,251,16.0,-999.0,43,-99.99,,,0.00,weatherlink.com 1.10,2013-05-05 00:42:00,
2013-05-04 17:57:00,59.3,37.0,29.55,SW,229,11.0,-999.0,44,-99.99,,,0.00,weatherlink.com 1.10,2013-05-05 00:57:00,
2013-05-04 18:12:00,58.4,37.0,29.54,West,270,6.0,-999.0,46,-99.99,,,0.00,weatherlink.com 1.10,2013-05-05 01:12:00,
2013-05-04 18:27:00,57.5,38.0,29.55,West,272,10.0,-999.0,49,-99.99,,,0.00,weatherlink.com 1.10,2013-05-05 01:27:00,
2013-05-04 18:42:00,56.3,39.0,29.55,SW,236,6.0,-999.0,52,-99.99,,,0.00,weatherlink.com 1.10,2013-05-05 01:42:00,
2013-05-04 18:57:00,54.8,39.0,29.56,WSW,248,6.0,-999.0,55,-99.99,,,0.00,weatherlink.com 1.10,2013-05-05 01:57:00,
2013-05-04 19:12:00,53.1,39.0,29.57,WSW,250,0.0,-999.0,59,-99.99,,,0.00,weatherlink.com 1.10,2013-05-05 02:12:00,
2013-05-04 19:27:00,52.2,38.0,29.55,WSW,246,5.0,-999.0,58,-99.99,,,0.00,weatherlink.com 1.10,2013-05-05 02:27:00,
2013-05-04 19:42:00,52.0,37.0,29.55,WSW,243,8.0,-999.0,58,-99.99,,,0.00,weatherlink.com 1.10,2013-05-05 02:42:00,
2013-05-04 19:57:00,51.9,37.0,29.55,WSW,256,3.0,-999.0,58,-99.99,,,0.00,weatherlink.com 1.10,2013-05-05 02:57:00,
2013-05-04 20:12:00,51.1,37.0,29.55,West,277,9.0,-999.0,60,-99.99,,,0.00,weatherlink.com 1.10,2013-05-05 03:12:00,
2013-05-04 20:27:00,51.0,36.0,29.55,West,263,0.0,-999.0,57,-99.99,,,0.00,weatherlink.com 1.10,2013-05-05 03:27:00,
2013-05-04 20:42:00,50.7,36.0,29.56,WNW,291,3.0,-999.0,57,-99.99,,,0.00,weatherlink.com 1.10,2013-05-05 03:42:00,
2013-05-04 20:57:00,50.4,35.0,29.56,WNW,288,3.0,-999.0,57,-99.99,,,0.00,weatherlink.com 1.10,2013-05-05 03:57:00,
2013-05-04 21:12:00,49.7,35.0,29.57,West,268,1.0,-999.0,57,-99.99,,,0.00,weatherlink.com 1.10,2013-05-05 04:12:00,
2013-05-04 21:27:00,49.5,32.0,29.55,West,280,7.0,-999.0,52,-99.99,,,0.00,weatherlink.com 1.10,2013-05-05 04:27:00,
2013-05-04 21:42:00,49.1,33.0,29.55,West,270,2.0,-999.0,54,-99.99,,,0.00,weatherlink.com 1.10,2013-05-05 04:42:00,
2013-05-04 21:57:00,49.4,33.0,29.56,West,263,0.0,-999.0,53,-99.99,,,0.00,weatherlink.com 1.10,2013-05-05 04:57:00,
2013-05-04 22:12:00,48.3,32.0,29.57,West,265,1.0,-999.0,53,-99.99,,,0.00,weatherlink.com 1.10,2013-05-05 05:12:00,
2013-05-04 22:27:00,48.9,29.0,29.55,WSW,247,1.0,-999.0,46,-99.99,,,0.00,weatherlink.com 1.10,2013-05-05 05:27:00,
2013-05-04 22:42:00,49.7,25.0,29.55,WSW,256,2.0,-999.0,38,-99.99,,,0.00,weatherlink.com 1.10,2013-05-05 05:42:00,
2013-05-04 22:57:00,50.7,22.0,29.55,SSW,208,2.0,-999.0,33,-99.99,,,0.00,weatherlink.com 1.10,2013-05-05 05:57:00,
2013-05-04 23:12:00,50.8,19.0,29.54,West,267,0.0,-999.0,28,-99.99,,,0.00,weatherlink.com 1.10,2013-05-05 06:12:00,
2013-05-04 23:27:00,51.7,17.0,29.53,SSW,213,5.0,-999.0,25,-99.99,,,0.00,weatherlink.com 1.10,2013-05-05 06:27:00,
2013-05-04 23:42:00,51.1,13.0,29.53,SW,233,4.0,-999.0,22,-99.99,,,0.00,weatherlink.com 1.10,2013-05-05 06:42:00,
2013-05-04 23:57:00,50.4,15.0,29.53,WSW,244,6.0,-999.0,24,-99.99,,,0.00,weatherlink.com 1.10,2013-05-05 06:57:00,